DW5488 Weather Reports


time (UTC)temp
F
wind
direction
speed
knots
gust
knots
rain 1hr
in
rain 24hr
in
rain mn
in
humidity
%
barometer
mb
20260506003058 72 327 7.8 13.0 0.00 0.00 0.00 71 1000.6
20260506001555 73 327 7.8 16.5 0.00 0.00 0.00 70 1000.5
20260506000153 74 320 11.3 17.4 0.00 0.00 0.00 69 1000.0
20260505234611 76 319 11.3 18.2 0.00 0.00 0.00 68 1000.0
20260505233050 78 311 8.7 16.5 0.00 0.00 0.00 66 999.6
20260505231553 79 311 7.0 18.2 0.00 0.00 0.00 64 999.7
20260505230053 81 315 7.8 13.0 0.00 0.00 0.00 62 999.4
20260505224552 83 316 8.7 13.0 0.00 0.00 0.00 57 999.0
20260505223101 85 309 6.1 11.3 0.00 0.00 0.00 53 998.7
20260505221604 86 312 9.6 13.9 0.00 0.00 0.00 51 998.4
20260505220113 91 317 5.2 8.7 0.00 0.00 0.00 53 998.1
20260505214603 91 194 1.7 5.2 0.00 0.00 0.00 53 998.4
20260505213046 90 259 1.7 4.3 0.00 0.00 0.00 53 998.3
20260505211544 90 204 1.7 7.0 0.00 0.00 0.00 53 998.7
20260505210042 89 169 1.7 9.6 0.00 0.00 0.00 57 998.8
20260505204538 89 171 2.6 9.6 0.00 0.00 0.00 57 998.8
20260505203038 88 161 1.7 6.1 0.00 0.00 0.00 56 999.2
20260505201542 87 205 3.5 7.0 0.00 0.00 0.00 59 999.4
20260505200045 87 205 2.6 7.0 0.00 0.00 0.00 59 999.4
20260505194539 87 166 3.5 7.8 0.00 0.00 0.00 61 999.4
20260505193037 87 178 3.5 11.3 0.00 0.00 0.00 60 999.4
20260505191530 85 175 3.5 11.3 0.00 0.00 0.00 63 999.5
20260505190026 84 228 2.6 9.6 0.00 0.00 0.00 64 999.3
20260505184528 84 182 5.2 9.6 0.00 0.00 0.00 63 999.5
20260505183040 84 209 3.5 10.4 0.00 0.00 0.00 62 999.6
20260505181525 84 161 4.3 10.4 0.00 0.00 0.00 65 999.6
20260505180021 83 208 3.5 8.7 0.00 0.00 0.00 66 999.6
20260505174521 82 175 4.3 12.2 0.00 0.00 0.00 67 999.5
20260505173022 82 202 4.3 11.3 0.00 0.00 0.00 69 999.5
20260505171515 80 176 5.2 8.7 0.00 0.00 0.00 70 999.6
20260505170014 80 224 4.3 9.6 0.00 0.00 0.00 71 999.7
20260505164510 79 197 5.2 8.7 0.00 0.00 0.00 73 999.8
20260505163009 78 196 4.3 10.4 0.00 0.00 0.00 73 999.9
20260505161507 78 173 4.3 10.4 0.00 0.00 0.00 73 999.7
20260505153002 76 130 4.3 11.3 0.00 0.00 0.00 77 999.3
20260505151608 75 196 5.2 12.2 0.00 0.00 0.00 78 999.3
20260505124603 71 157 5.2 15.6 0.00 0.00 0.00 83 999.1
20260505123054 71 177 4.3 8.7 0.00 0.00 0.00 83 998.9
20260505121553 71 196 4.3 11.3 0.00 0.00 0.00 83 998.8
20260505120056 71 169 5.2 13.0 0.00 0.00 0.00 82 998.6
20260505114551 71 182 6.1 11.3 0.00 0.00 0.00 82 998.5
20260505113055 71 198 5.2 11.3 0.00 0.00 0.00 82 998.5
20260505111550 71 165 5.2 12.2 0.00 0.00 0.00 82 998.4
20260505101547 72 167 7.0 13.9 0.00 0.00 0.00 81 998.1
20260505100047 72 153 5.2 10.4 0.00 0.00 0.00 81 998.6
20260505094546 72 172 5.2 15.6 0.00 0.00 0.00 81 998.4
20260505093044 72 174 6.1 10.4 0.00 0.00 0.00 81 998.8
20260505091542 72 173 4.3 12.2 0.00 0.00 0.00 81 999.0
20260505090042 72 175 7.0 12.2 0.00 0.00 0.00 80 999.0
20260505084545 72 157 6.1 12.2 0.00 0.00 0.00 79 999.0
20260505083036 72 132 6.1 10.4 0.00 0.00 0.00 79 998.9
20260505081534 72 185 3.5 10.4 0.00 0.00 0.00 79 999.0
20260505080037 73 150 6.1 12.2 0.00 0.00 0.00 78 999.0
20260505074535 73 148 5.2 13.9 0.00 0.00 0.00 77 999.2
20260505073038 73 169 5.2 13.0 0.00 0.00 0.00 77 999.6
20260505071526 73 177 6.1 9.6 0.00 0.00 0.00 76 999.6
20260505070036 73 191 6.1 11.3 0.00 0.00 0.00 75 999.9
20260505064522 74 181 5.2 12.2 0.00 0.00 0.00 74 1000.0
20260505063022 74 180 5.2 13.0 0.00 0.00 0.00 74 1000.1
20260505061524 74 186 5.2 12.2 0.00 0.00 0.00 73 1000.2
20260505060020 74 176 5.2 12.2 0.00 0.00 0.00 73 1000.1
20260505054523 74 163 4.3 10.4 0.00 0.00 0.00 72 1000.3
20260505053020 74 185 6.1 12.2 0.00 0.00 0.00 72 1000.4
20260505051520 75 194 5.2 11.3 0.00 0.00 0.00 71 1000.5
20260505041529 75 177 6.1 12.2 0.00 0.00 0.00 70 1000.6
20260505040023 75 173 4.3 11.3 0.00 0.00 0.00 70 1000.7
20260505034521 75 199 4.3 9.6 0.00 0.00 0.00 70 1000.7
20260505033014 75 180 5.2 13.9 0.00 0.00 0.00 69 1000.8
20260505031523 75 154 6.1 13.9 0.00 0.00 0.00 69 1000.9
20260505030011 75 144 6.1 12.2 0.00 0.00 0.00 69 1000.9
20260505024512 76 187 4.3 9.6 0.00 0.00 0.00 68 1001.1
20260505023012 76 178 4.3 12.2 0.00 0.00 0.00 68 1001.1
20260505021512 76 143 6.1 12.2 0.00 0.00 0.00 67 1000.8
20260505020011 76 196 5.2 13.9 0.00 0.00 0.00 67 1000.7
20260505014509 76 136 7.0 15.6 0.00 0.00 0.00 66 1000.6
20260505013010 77 177 5.2 10.4 0.00 0.00 0.00 65 1000.8
20260505011509 77 143 6.1 13.0 0.00 0.00 0.00 65 1000.6
20260505010009 77 159 6.1 12.2 0.00 0.00 0.00 65 1000.7
20260505004508 77 178 7.0 13.0 0.00 0.00 0.00 64 1000.6